Dublin, Ireland

8:18 AM IST on June 23, 2017 (GMT +0100)
Dublin International

Weather History for EIDW - December, 2011

Change the Weather History Date:

Thursday, December 22, 2011

  Actual Average Record
Temperature  
Mean Temperature 52 °F -  
Max Temperature 55 °F 46 °F 56 °F (2012)
Min Temperature 48 °F 37 °F 15 °F (2010)
Degree Days  
Heating Degree Days 14    
Growing Degree Days 2 (Base 50)    
Moisture  
Dew Point 48 °F    
Average Humidity 85    
Maximum Humidity 94    
Minimum Humidity 77    
Precipitation  
Precipitation 0.00 in 0.09 in - ()
Sea Level Pressure  
Sea Level Pressure 30.12 in    
Wind  
Wind Speed 17 mph ()    
Max Wind Speed 24 mph    
Max Gust Speed 31 mph    
Visibility 7.1 miles    
Events      
Averages and records for this station are not official NWS values.
T = Trace of Precipitation, MM = Missing Value Source: Averaged Metar Reports

Daily Weather History Graph

Daily Weather History Graph

Search for Another Location

Airport or City:

Trip Planner

Search our weather history database for the weather conditions in past years. The results will help you decide how hot, cold, wet, or windy it might be!

Date:

Astronomy

Dec. 22, 2011 Rise Set
Actual Time 8:38 AM GMT 4:07 PM GMT
Civil Twilight 7:55 AM GMT 4:50 PM GMT
Nautical Twilight 7:10 AM GMT 5:36 PM GMT
Astronomical Twilight 6:27 AM GMT 6:19 PM GMT
Moon 6:02 AM GMT (12/22) 2:07 PM GMT (12/22)
Length of Visible Light 8h 55m
Length of Day
7h 28m
Waning Crescent, 7% of the Moon is Illuminated
Dec 22
Waning Crescent
Dec 24
New
Jan 1
First Quarter
Jan 9
Full
Jan 16
Last Quarter

Hourly Weather History & Observations

Time (GMT) Temp. Dew Point Humidity Pressure Visibility Wind Dir Wind Speed Gust Speed Precip Events Conditions
12:00 AM 52 °F 49 °F 85% 30.19 in 16 mi WSW 20.1 mph - -   Mostly Cloudy
12:00 AM 51.8 °F 48.2 °F 88% 30.18 in 6.2 mi WSW 20.7 mph - N/A   Mostly Cloudy
12:30 AM 51.8 °F 48.2 °F 88% 30.18 in 6.2 mi WSW 20.7 mph - N/A   Mostly Cloudy
1:00 AM 51.8 °F 48.2 °F 88% 30.18 in 6.2 mi WSW 21.9 mph - N/A   Mostly Cloudy
1:30 AM 51.8 °F 48.2 °F 88% 30.18 in 6.2 mi WSW 19.6 mph - N/A   Mostly Cloudy
2:00 AM 51.8 °F 48.2 °F 88% 30.15 in 6.2 mi WSW 21.9 mph - N/A   Mostly Cloudy
2:30 AM 51.8 °F 48.2 °F 88% 30.15 in 6.2 mi WSW 23.0 mph - N/A   Mostly Cloudy
3:00 AM 51.8 °F 48.2 °F 88% 30.15 in 6.2 mi WSW 21.9 mph - N/A   Mostly Cloudy
3:30 AM 50.0 °F 46.4 °F 87% 30.15 in 6.2 mi WSW 21.9 mph - N/A   Partly Cloudy
4:00 AM 50.0 °F 46.4 °F 87% 30.15 in 6.2 mi WSW 20.7 mph - N/A   Mostly Cloudy
4:30 AM 50.0 °F 46.4 °F 87% 30.15 in 6.2 mi WSW 19.6 mph - N/A   Mostly Cloudy
5:00 AM 50.0 °F 46.4 °F 87% 30.15 in 6.2 mi WSW 17.3 mph - N/A   Mostly Cloudy
5:30 AM 50.0 °F 46.4 °F 87% 30.15 in 6.2 mi WSW 19.6 mph - N/A   Mostly Cloudy
6:00 AM 50 °F 46 °F 81% 30.18 in 16 mi WSW 20.1 mph - -   Scattered Clouds
6:00 AM 50.0 °F 46.4 °F 87% 30.15 in 6.2 mi WSW 20.7 mph - N/A   Mostly Cloudy
6:30 AM 50.0 °F 46.4 °F 87% 30.15 in 6.2 mi WSW 17.3 mph - N/A   Mostly Cloudy
7:00 AM 48.2 °F 46.4 °F 93% 30.18 in 6.2 mi SW 18.4 mph - N/A   Scattered Clouds
7:30 AM 50.0 °F 44.6 °F 82% 30.18 in 6.2 mi SW 13.8 mph - N/A   Scattered Clouds
8:00 AM 50.0 °F 44.6 °F 82% 30.18 in 6.2 mi SW 9.2 mph - N/A   Scattered Clouds
8:30 AM 50.0 °F 44.6 °F 82% 30.18 in 6.2 mi SW 11.5 mph - N/A   Mostly Cloudy
9:00 AM 51.8 °F 46.4 °F 82% 30.18 in 6.2 mi SW 12.7 mph - N/A   Mostly Cloudy
9:30 AM 51.8 °F 46.4 °F 82% 30.18 in 6.2 mi SW 12.7 mph - N/A   Mostly Cloudy
10:00 AM 50.0 °F 48.2 °F 94% 30.21 in 6.2 mi SW 15.0 mph - N/A   Mostly Cloudy
10:30 AM 51.8 °F 48.2 °F 88% 30.18 in 6.2 mi SW 13.8 mph - N/A   Mostly Cloudy
11:00 AM 51.8 °F 48.2 °F 88% 30.18 in 6.2 mi SW 16.1 mph - N/A   Mostly Cloudy
11:30 AM 51.8 °F 48.2 °F 88% 30.18 in 6.2 mi SW 19.6 mph - N/A   Mostly Cloudy
12:00 PM 53 °F 48 °F 77% 30.19 in 19 mi SW 17.9 mph - -   Mostly Cloudy
12:00 PM 53.6 °F 48.2 °F 82% 30.18 in 6.2 mi SW 18.4 mph - N/A   Mostly Cloudy
12:30 PM 53.6 °F 48.2 °F 82% 30.18 in 6.2 mi SW 17.3 mph - N/A   Mostly Cloudy
1:00 PM 53.6 °F 48.2 °F 82% 30.15 in 6.2 mi SW 16.1 mph - N/A   Mostly Cloudy
1:30 PM 53.6 °F 48.2 °F 82% 30.15 in 6.2 mi SW 17.3 mph - N/A   Scattered Clouds
2:00 PM 53.6 °F 48.2 °F 82% 30.12 in 6.2 mi SW 16.1 mph - N/A   Scattered Clouds
2:30 PM 53.6 °F 50.0 °F 88% 30.12 in 6.2 mi SW 17.3 mph - N/A   Mostly Cloudy
3:00 PM 53.6 °F 50.0 °F 88% 30.12 in 6.2 mi SSW 12.7 mph - N/A   Mostly Cloudy
3:30 PM 53.6 °F 48.2 °F 82% 30.12 in 6.2 mi SSW 13.8 mph - N/A   Mostly Cloudy
4:00 PM 55.4 °F 48.2 °F 77% 30.09 in 6.2 mi SSW 12.7 mph - N/A   Mostly Cloudy
4:30 PM 55.4 °F 48.2 °F 77% 30.09 in 6.2 mi SSW 15.0 mph - N/A   Mostly Cloudy
5:00 PM 55.4 °F 48.2 °F 77% 30.06 in 6.2 mi SSW 16.1 mph - N/A   Mostly Cloudy
5:30 PM 53.6 °F 48.2 °F 82% 30.06 in 6.2 mi SSW 17.3 mph - N/A   Mostly Cloudy
6:00 PM 53 °F 49 °F 82% 30.07 in 19 mi SSW 15.7 mph - -   Partly Cloudy
6:00 PM 53.6 °F 48.2 °F 82% 30.06 in 6.2 mi SSW 17.3 mph - N/A   Mostly Cloudy
6:30 PM 53.6 °F 46.4 °F 77% 30.06 in 6.2 mi SSW 18.4 mph - N/A   Mostly Cloudy
7:00 PM 53.6 °F 48.2 °F 82% 30.06 in 6.2 mi SSW 17.3 mph - N/A   Mostly Cloudy
7:30 PM 53.6 °F 48.2 °F 82% 30.04 in 6.2 mi SSW 15.0 mph - N/A   Mostly Cloudy
8:00 PM 53.6 °F 48.2 °F 82% 30.04 in 6.2 mi SSW 17.3 mph - N/A   Overcast
8:30 PM 53.6 °F 48.2 °F 82% 30.01 in 6.2 mi SSW 20.7 mph - N/A   Mostly Cloudy
9:00 PM 53.6 °F 48.2 °F 82% 30.01 in 6.2 mi SSW 16.1 mph - N/A   Scattered Clouds
9:30 PM 51.8 °F 48.2 °F 88% 29.98 in 6.2 mi SSW 16.1 mph - N/A   Partly Cloudy
10:00 PM 51.8 °F 48.2 °F 88% 29.98 in 6.2 mi SSW 17.3 mph - N/A   Mostly Cloudy
10:30 PM 51.8 °F 48.2 °F 88% 29.98 in 6.2 mi SSW 19.6 mph 31.1 mph N/A   Scattered Clouds
11:00 PM 51.8 °F 48.2 °F 88% 29.95 in 6.2 mi SSW 24.2 mph - N/A   Scattered Clouds
11:30 PM 51.8 °F 48.2 °F 88% 29.95 in 6.2 mi SSW 19.6 mph - N/A   Partly Cloudy